| time (UTC) | temp F | wind direction | speed MPH | gust MPH | rain 1hr in | rain 24hr in | rain mn in | humidity % | barometer mb |
| 20260904011056 | 81 | 5 | 0.0 | 0.0 | 0.00 | 0.16 | 0.16 | 93 | 1012.5 |
| 20260904010534 | 81 | 5 | 0.0 | 1.0 | 0.00 | 0.16 | 0.16 | 93 | 1012.5 |
| 20260904010031 | 81 | 5 | 0.0 | 1.0 | 0.00 | 0.16 | 0.16 | 93 | 1012.5 |
| 20260904005528 | 81 | 5 | 0.0 | 2.0 | 0.00 | 0.16 | 0.16 | 93 | 1012.5 |
| 20260904004952 | 82 | 5 | 0.0 | 2.0 | 0.00 | 0.16 | 0.16 | 93 | 1012.5 |
| 20260904004449 | 82 | 5 | 0.0 | 2.0 | 0.00 | 0.16 | 0.16 | 93 | 1012.2 |
| 20260904003946 | 82 | 5 | 1.0 | 2.0 | 0.00 | 0.16 | 0.16 | 93 | 1012.5 |
| 20260904003444 | 82 | 5 | 0.0 | 2.0 | 0.00 | 0.16 | 0.16 | 93 | 1012.5 |
| 20260904002914 | 82 | 5 | 0.0 | 2.0 | 0.00 | 0.16 | 0.16 | 93 | 1012.5 |
| 20260904002411 | 82 | 5 | 0.0 | 2.0 | 0.00 | 0.16 | 0.16 | 93 | 1012.5 |
| 20260904001908 | 82 | 5 | 0.0 | 2.0 | 0.00 | 0.16 | 0.16 | 92 | 1012.5 |
| 20260904001405 | 82 | 5 | 0.0 | 2.0 | 0.00 | 0.16 | 0.16 | 93 | 1012.5 |
| 20260904000902 | 82 | 5 | 1.0 | 2.0 | 0.00 | 0.16 | 0.16 | 93 | 1012.5 |
| 20260904000359 | 82 | 5 | 0.0 | 2.0 | 0.00 | 0.16 | 0.16 | 93 | 1012.5 |
| 20260903235856 | 82 | 5 | 1.0 | 3.0 | 0.00 | 0.16 | 0.16 | 92 | 1012.5 |
| 20260903235351 | 82 | 25 | 0.0 | 3.0 | 0.00 | 0.16 | 0.16 | 92 | 1012.5 |
| 20260903234847 | 82 | 25 | 1.0 | 3.0 | 0.00 | 0.16 | 0.16 | 92 | 1012.5 |
| 20260903234344 | 83 | 323 | 1.0 | 3.0 | 0.00 | 0.16 | 0.16 | 93 | 1012.5 |
| 20260903233841 | 83 | 338 | 1.0 | 3.0 | 0.00 | 0.16 | 0.16 | 92 | 1012.5 |
| 20260903233307 | 83 | 338 | 1.0 | 3.0 | 0.00 | 0.16 | 0.16 | 92 | 1012.5 |
| 20260903232803 | 82 | 267 | 1.0 | 3.0 | 0.00 | 0.16 | 0.16 | 92 | 1012.5 |
| 20260903232228 | 82 | 97 | 1.0 | 3.0 | 0.00 | 0.16 | 0.16 | 92 | 1012.5 |
| 20260903231725 | 83 | 8 | 1.0 | 2.0 | 0.00 | 0.16 | 0.16 | 92 | 1012.2 |
| 20260903231151 | 83 | 360 | 0.0 | 0.0 | 0.00 | 0.16 | 0.16 | 93 | 1012.5 |
| 20260903230648 | 83 | 42 | 0.0 | 0.0 | 0.00 | 0.16 | 0.16 | 93 | 1012.5 |
| 20260903230124 | 83 | 300 | 0.0 | 0.0 | 0.00 | 0.16 | 0.16 | 92 | 1012.5 |
| 20260903225547 | 83 | 300 | 0.0 | 0.0 | 0.00 | 0.16 | 0.16 | 92 | 1012.5 |
| 20260903225044 | 83 | 355 | 0.0 | 0.0 | 0.00 | 0.16 | 0.16 | 92 | 1012.5 |
| 20260903224541 | 83 | 355 | 0.0 | 0.0 | 0.00 | 0.16 | 0.16 | 92 | 1012.5 |
| 20260903224038 | 83 | 109 | 0.0 | 0.0 | 0.00 | 0.16 | 0.16 | 92 | 1012.5 |
| 20260903223535 | 83 | 109 | 0.0 | 2.0 | 0.00 | 0.16 | 0.16 | 92 | 1012.9 |
| 20260903223032 | 83 | 355 | 0.0 | 3.0 | 0.00 | 0.16 | 0.16 | 92 | 1012.9 |
| 20260903222441 | 84 | 360 | 0.0 | 4.0 | 0.00 | 0.16 | 0.16 | 92 | 1012.9 |
| 20260903221938 | 84 | 112 | 2.0 | 5.0 | 0.00 | 0.16 | 0.16 | 92 | 1012.9 |
| 20260903221435 | 84 | 62 | 1.0 | 5.0 | 0.00 | 0.16 | 0.16 | 92 | 1012.9 |
| 20260903220933 | 83 | 77 | 2.0 | 5.0 | 0.00 | 0.16 | 0.16 | 92 | 1012.9 |
| 20260903220411 | 83 | 75 | 2.0 | 5.0 | 0.00 | 0.16 | 0.16 | 92 | 1012.9 |
| 20260903215908 | 83 | 61 | 1.0 | 4.0 | 0.00 | 0.16 | 0.16 | 92 | 1012.9 |
| 20260903215404 | 83 | 70 | 2.0 | 4.0 | 0.00 | 0.16 | 0.16 | 92 | 1012.9 |
| 20260903214901 | 83 | 79 | 2.0 | 4.0 | 0.00 | 0.16 | 0.16 | 92 | 1013.2 |
| 20260903214326 | 83 | 88 | 1.0 | 2.0 | 0.00 | 0.16 | 0.16 | 93 | 1013.2 |
| 20260903213823 | 83 | 88 | 1.0 | 2.0 | 0.00 | 0.16 | 0.16 | 93 | 1013.5 |
| 20260903213249 | 83 | 50 | 1.0 | 3.0 | 0.00 | 0.16 | 0.16 | 92 | 1013.5 |
| 20260903212209 | 83 | 92 | 0.0 | 3.0 | 0.00 | 0.16 | 0.16 | 92 | 1013.5 |
| 20260903211706 | 83 | 66 | 1.0 | 3.0 | 0.00 | 0.16 | 0.16 | 92 | 1013.5 |
| 20260903211159 | 83 | 74 | 2.0 | 3.0 | 0.01 | 0.16 | 0.16 | 92 | 1013.5 |
| 20260903210656 | 83 | 56 | 1.0 | 3.0 | 0.02 | 0.16 | 0.16 | 92 | 1013.5 |
| 20260903210146 | 83 | 31 | 1.0 | 3.0 | 0.04 | 0.16 | 0.16 | 92 | 1013.5 |
| 20260903205631 | 83 | 29 | 1.0 | 4.0 | 0.08 | 0.16 | 0.16 | 93 | 1013.5 |
| 20260903205026 | 83 | 27 | 1.0 | 4.0 | 0.11 | 0.16 | 0.16 | 93 | 1013.5 |
| 20260903204523 | 83 | 356 | 1.0 | 4.0 | 0.13 | 0.16 | 0.16 | 93 | 1013.5 |
| 20260903203948 | 83 | 74 | 1.0 | 4.0 | 0.14 | 0.16 | 0.16 | 92 | 1013.5 |
| 20260903203445 | 83 | 70 | 0.0 | 2.0 | 0.16 | 0.16 | 0.16 | 92 | 1013.5 |
| 20260903202942 | 83 | 70 | 0.0 | 2.0 | 0.16 | 0.16 | 0.16 | 93 | 1013.2 |
| 20260903202438 | 83 | 58 | 2.0 | 2.0 | 0.16 | 0.16 | 0.16 | 92 | 1013.2 |
| 20260903201935 | 83 | 325 | 0.0 | 0.0 | 0.16 | 0.16 | 0.16 | 92 | 1013.5 |
| 20260903201417 | 84 | 325 | 0.0 | 0.0 | 0.15 | 0.15 | 0.15 | 91 | 1013.5 |
| 20260903200843 | 84 | 325 | 0.0 | 0.0 | 0.15 | 0.15 | 0.15 | 91 | 1013.5 |
| 20260903200318 | 85 | 325 | 0.0 | 1.0 | 0.13 | 0.13 | 0.13 | 90 | 1013.2 |
| 20260903195816 | 85 | 325 | 0.0 | 1.0 | 0.09 | 0.09 | 0.09 | 90 | 1013.5 |
| 20260903195312 | 86 | 325 | 0.0 | 2.0 | 0.06 | 0.06 | 0.06 | 89 | 1013.5 |
| 20260903194809 | 87 | 325 | 0.0 | 2.0 | 0.03 | 0.03 | 0.03 | 87 | 1013.9 |
| 20260903194306 | 89 | 325 | 1.0 | 3.0 | 0.02 | 0.02 | 0.02 | 85 | 1013.9 |
| 20260903193802 | 90 | 325 | 1.0 | 5.0 | 0.01 | 0.01 | 0.01 | 83 | 1013.9 |
| 20260903193258 | 90 | 325 | 1.0 | 7.0 | 0.00 | 0.00 | 0.00 | 81 | 1013.9 |
| 20260903192755 | 91 | 65 | 2.0 | 8.0 | 0.00 | 0.00 | 0.00 | 79 | 1013.9 |
| 20260903192252 | 91 | 23 | 1.0 | 9.0 | 0.00 | 0.00 | 0.00 | 79 | 1013.9 |
| 20260903191733 | 92 | 44 | 2.0 | 10.0 | 0.00 | 0.00 | 0.00 | 77 | 1013.5 |
| 20260903191159 | 93 | 74 | 2.0 | 10.0 | 0.00 | 0.00 | 0.00 | 76 | 1013.2 |
| 20260903190656 | 93 | 50 | 2.0 | 10.0 | 0.00 | 0.00 | 0.00 | 75 | 1013.5 |
| 20260903190153 | 93 | 55 | 3.0 | 10.0 | 0.00 | 0.00 | 0.00 | 75 | 1013.5 |
| 20260903185631 | 93 | 22 | 2.0 | 9.0 | 0.00 | 0.00 | 0.00 | 75 | 1013.5 |
| 20260903185127 | 92 | 48 | 2.0 | 9.0 | 0.00 | 0.00 | 0.00 | 77 | 1013.5 |
| 20260903184625 | 92 | 58 | 3.0 | 8.0 | 0.00 | 0.00 | 0.00 | 76 | 1013.9 |
| 20260903184122 | 92 | 49 | 2.0 | 8.0 | 0.00 | 0.00 | 0.00 | 77 | 1013.9 |
| 20260903183618 | 92 | 32 | 2.0 | 8.0 | 0.00 | 0.00 | 0.00 | 78 | 1013.9 |
| 20260903183115 | 92 | 63 | 2.0 | 8.0 | 0.00 | 0.00 | 0.00 | 79 | 1013.9 |
| 20260903182612 | 91 | 71 | 3.0 | 8.0 | 0.00 | 0.00 | 0.00 | 79 | 1013.9 |
| 20260903182108 | 92 | 46 | 2.0 | 8.0 | 0.00 | 0.00 | 0.00 | 78 | 1013.9 |
| 20260903181547 | 92 | 31 | 3.0 | 7.0 | 0.00 | 0.00 | 0.00 | 79 | 1013.9 |
| 20260903181043 | 92 | 54 | 2.0 | 7.0 | 0.00 | 0.00 | 0.00 | 79 | 1013.9 |
| 20260903180540 | 92 | 26 | 2.0 | 7.0 | 0.00 | 0.00 | 0.00 | 78 | 1014.2 |
| 20260903180005 | 93 | 72 | 2.0 | 7.0 | 0.00 | 0.00 | 0.00 | 77 | 1014.6 |
| 20260903175502 | 93 | 81 | 1.0 | 6.0 | 0.00 | 0.00 | 0.00 | 78 | 1014.6 |
| 20260903174959 | 93 | 78 | 3.0 | 6.0 | 0.00 | 0.00 | 0.00 | 76 | 1014.6 |
| 20260903174456 | 93 | 74 | 1.0 | 3.0 | 0.00 | 0.00 | 0.00 | 73 | 1014.6 |
| 20260903173953 | 93 | 79 | 1.0 | 3.0 | 0.00 | 0.00 | 0.00 | 74 | 1014.6 |
| 20260903173451 | 93 | 91 | 0.0 | 3.0 | 0.00 | 0.00 | 0.00 | 74 | 1014.6 |
| 20260903172913 | 93 | 167 | 2.0 | 3.0 | 0.00 | 0.00 | 0.00 | 74 | 1014.6 |
| 20260903172314 | 94 | 330 | 1.0 | 3.0 | 0.00 | 0.00 | 0.00 | 74 | 1014.6 |
| 20260903171809 | 93 | 355 | 1.0 | 3.0 | 0.00 | 0.00 | 0.00 | 76 | 1014.9 |
| 20260903171247 | 92 | 15 | 1.0 | 3.0 | 0.00 | 0.00 | 0.00 | 77 | 1014.9 |
| 20260903170725 | 92 | 249 | 1.0 | 3.0 | 0.00 | 0.00 | 0.00 | 75 | 1014.9 |
| 20260903170221 | 91 | 243 | 1.0 | 3.0 | 0.00 | 0.00 | 0.00 | 78 | 1014.9 |
| 20260903165718 | 91 | 244 | 1.0 | 3.0 | 0.00 | 0.00 | 0.00 | 78 | 1014.9 |
| 20260903165215 | 90 | 239 | 1.0 | 3.0 | 0.00 | 0.00 | 0.00 | 80 | 1015.2 |
| 20260903164712 | 90 | 265 | 2.0 | 3.0 | 0.00 | 0.00 | 0.00 | 79 | 1014.9 |
| 20260903164138 | 90 | 20 | 1.0 | 6.0 | 0.00 | 0.00 | 0.00 | 81 | 1014.9 |
| 20260903163635 | 89 | 274 | 1.0 | 6.0 | 0.00 | 0.00 | 0.00 | 83 | 1014.9 |
| 20260903163133 | 88 | 274 | 0.0 | 6.0 | 0.00 | 0.00 | 0.00 | 84 | 1014.9 |
| 20260903162630 | 87 | 260 | 3.0 | 6.0 | 0.00 | 0.00 | 0.00 | 86 | 1014.9 |
| 20260903162056 | 86 | 260 | 1.0 | 2.0 | 0.00 | 0.00 | 0.00 | 87 | 1014.6 |
| 20260903161553 | 85 | 249 | 0.0 | 2.0 | 0.00 | 0.00 | 0.00 | 89 | 1014.6 |
| 20260903161019 | 84 | 65 | 0.0 | 2.0 | 0.00 | 0.00 | 0.00 | 89 | 1014.6 |
| 20260903160426 | 84 | 65 | 0.0 | 2.0 | 0.00 | 0.00 | 0.00 | 89 | 1014.6 |
| 20260903155852 | 83 | 65 | 1.0 | 1.0 | 0.00 | 0.00 | 0.00 | 90 | 1014.6 |
| 20260903155348 | 83 | 65 | 0.0 | 1.0 | 0.00 | 0.00 | 0.00 | 90 | 1014.9 |
| 20260903154844 | 83 | 65 | 0.0 | 1.0 | 0.00 | 0.00 | 0.00 | 90 | 1014.9 |
| 20260903154341 | 83 | 65 | 1.0 | 2.0 | 0.00 | 0.00 | 0.00 | 90 | 1014.9 |
| 20260903153800 | 82 | 65 | 0.0 | 2.0 | 0.00 | 0.00 | 0.00 | 91 | 1014.9 |
| 20260903153234 | 82 | 65 | 0.0 | 2.0 | 0.00 | 0.00 | 0.00 | 90 | 1014.9 |
| 20260903152729 | 82 | 59 | 1.0 | 1.0 | 0.00 | 0.00 | 0.00 | 90 | 1014.9 |
| 20260903152210 | 82 | 55 | 1.0 | 1.0 | 0.00 | 0.00 | 0.00 | 91 | 1014.9 |
| 20260903151706 | 82 | 53 | 0.0 | 1.0 | 0.00 | 0.00 | 0.00 | 91 | 1014.9 |
| 20260903151203 | 82 | 73 | 0.0 | 0.0 | 0.00 | 0.00 | 0.00 | 90 | 1014.9 |
| 20260903150628 | 81 | 80 | 0.0 | 0.0 | 0.00 | 0.00 | 0.00 | 90 | 1014.9 |
| 20260903150125 | 81 | 80 | 0.0 | 0.0 | 0.00 | 0.00 | 0.00 | 91 | 1014.6 |
| 20260903145557 | 81 | 80 | 0.0 | 0.0 | 0.00 | 0.00 | 0.00 | 90 | 1014.6 |
| 20260903145053 | 80 | 80 | 0.0 | 0.0 | 0.00 | 0.00 | 0.00 | 90 | 1014.6 |
| 20260903144550 | 80 | 80 | 0.0 | 0.0 | 0.00 | 0.00 | 0.00 | 90 | 1014.6 |
| 20260903144047 | 80 | 80 | 0.0 | 0.0 | 0.00 | 0.00 | 0.00 | 91 | 1014.9 |
| 20260903143543 | 80 | 80 | 0.0 | 0.0 | 0.00 | 0.00 | 0.00 | 91 | 1014.9 |
| 20260903143041 | 80 | 80 | 0.0 | 0.0 | 0.00 | 0.00 | 0.00 | 91 | 1014.6 |
| 20260903142538 | 79 | 80 | 0.0 | 0.0 | 0.00 | 0.00 | 0.00 | 91 | 1014.9 |
| 20260903141933 | 79 | 80 | 0.0 | 0.0 | 0.00 | 0.00 | 0.00 | 90 | 1014.9 |
| 20260903141429 | 79 | 80 | 0.0 | 0.0 | 0.00 | 0.00 | 0.00 | 90 | 1014.9 |
| 20260903140927 | 79 | 80 | 0.0 | 0.0 | 0.00 | 0.00 | 0.00 | 90 | 1014.9 |
| 20260903140424 | 79 | 80 | 0.0 | 0.0 | 0.00 | 0.00 | 0.00 | 90 | 1014.9 |
| 20260903135921 | 79 | 80 | 0.0 | 0.0 | 0.00 | 0.00 | 0.00 | 89 | 1014.9 |
| 20260903135418 | 79 | 80 | 0.0 | 0.0 | 0.00 | 0.00 | 0.00 | 89 | 1014.9 |
| 20260903134915 | 79 | 80 | 0.0 | 0.0 | 0.00 | 0.00 | 0.00 | 89 | 1014.9 |
| 20260903134412 | 79 | 80 | 0.0 | 0.0 | 0.00 | 0.00 | 0.00 | 89 | 1014.9 |
| 20260903133838 | 79 | 80 | 0.0 | 0.0 | 0.00 | 0.00 | 0.00 | 89 | 1014.9 |
| 20260903133335 | 79 | 80 | 0.0 | 0.0 | 0.00 | 0.00 | 0.00 | 89 | 1014.9 |
| 20260903132832 | 79 | 80 | 0.0 | 0.0 | 0.00 | 0.00 | 0.00 | 89 | 1014.9 |
| 20260903132329 | 79 | 80 | 0.0 | 0.0 | 0.00 | 0.00 | 0.00 | 89 | 1014.9 |
| 20260903131748 | 79 | 80 | 0.0 | 0.0 | 0.00 | 0.00 | 0.00 | 88 | 1014.9 |
| 20260903130649 | 79 | 80 | 0.0 | 0.0 | 0.00 | 0.00 | 0.00 | 88 | 1014.9 |
| 20260903130146 | 79 | 80 | 0.0 | 0.0 | 0.00 | 0.00 | 0.00 | 88 | 1014.9 |
| 20260903125644 | 79 | 80 | 0.0 | 0.0 | 0.00 | 0.00 | 0.00 | 88 | 1014.9 |
| 20260903125141 | 79 | 80 | 0.0 | 0.0 | 0.00 | 0.00 | 0.00 | 88 | 1014.6 |
| 20260903124638 | 79 | 80 | 0.0 | 0.0 | 0.00 | 0.00 | 0.00 | 89 | 1014.6 |
| 20260903124135 | 79 | 80 | 0.0 | 0.0 | 0.00 | 0.00 | 0.00 | 88 | 1014.6 |
| 20260903123632 | 80 | 80 | 0.0 | 0.0 | 0.00 | 0.00 | 0.00 | 88 | 1014.6 |
| 20260903123057 | 80 | 80 | 0.0 | 1.0 | 0.00 | 0.00 | 0.00 | 88 | 1014.6 |
| 20260903122554 | 81 | 80 | 0.0 | 1.0 | 0.00 | 0.00 | 0.00 | 89 | 1014.6 |
| 20260903122051 | 82 | 80 | 0.0 | 1.0 | 0.00 | 0.00 | 0.00 | 92 | 1014.6 |
| 20260903121548 | 82 | 80 | 1.0 | 1.0 | 0.00 | 0.00 | 0.00 | 92 | 1014.2 |
| 20260903121045 | 82 | 80 | 0.0 | 1.0 | 0.00 | 0.00 | 0.00 | 92 | 1013.9 |
| 20260903120522 | 82 | 80 | 0.0 | 1.0 | 0.00 | 0.00 | 0.00 | 92 | 1013.9 |
| 20260903115953 | 82 | 80 | 0.0 | 1.0 | 0.00 | 0.00 | 0.00 | 92 | 1013.9 |
| 20260903115349 | 82 | 80 | 0.0 | 0.0 | 0.00 | 0.00 | 0.00 | 92 | 1013.9 |
| 20260903114846 | 82 | 80 | 0.0 | 0.0 | 0.00 | 0.00 | 0.00 | 92 | 1013.9 |
| 20260903114323 | 82 | 80 | 0.0 | 1.0 | 0.00 | 0.00 | 0.00 | 92 | 1013.9 |
| 20260903113734 | 82 | 80 | 0.0 | 1.0 | 0.00 | 0.00 | 0.00 | 92 | 1013.9 |
| 20260903113231 | 82 | 80 | 0.0 | 1.0 | 0.00 | 0.00 | 0.00 | 92 | 1013.9 |
| 20260903112728 | 82 | 80 | 0.0 | 0.0 | 0.00 | 0.00 | 0.00 | 92 | 1013.9 |
| 20260903112226 | 82 | 80 | 0.0 | 0.0 | 0.00 | 0.00 | 0.00 | 92 | 1013.9 |
| 20260903111723 | 82 | 80 | 0.0 | 0.0 | 0.00 | 0.00 | 0.00 | 91 | 1013.9 |
| 20260903111220 | 82 | 80 | 0.0 | 0.0 | 0.00 | 0.00 | 0.00 | 91 | 1013.9 |
| 20260903110717 | 82 | 80 | 0.0 | 0.0 | 0.00 | 0.00 | 0.00 | 91 | 1013.9 |
| 20260903110120 | 82 | 80 | 0.0 | 0.0 | 0.00 | 0.00 | 0.00 | 91 | 1013.9 |
| 20260903105616 | 82 | 80 | 0.0 | 0.0 | 0.00 | 0.00 | 0.00 | 91 | 1013.9 |
| 20260903105043 | 82 | 80 | 0.0 | 0.0 | 0.00 | 0.00 | 0.00 | 91 | 1013.9 |
| 20260903104539 | 82 | 80 | 0.0 | 0.0 | 0.00 | 0.00 | 0.00 | 91 | 1013.9 |
| 20260903104035 | 82 | 80 | 0.0 | 0.0 | 0.00 | 0.00 | 0.00 | 91 | 1013.5 |
| 20260903103532 | 82 | 80 | 0.0 | 0.0 | 0.00 | 0.00 | 0.00 | 91 | 1013.5 |
| 20260903103028 | 82 | 80 | 0.0 | 0.0 | 0.00 | 0.00 | 0.00 | 91 | 1013.5 |
| 20260903102525 | 82 | 80 | 0.0 | 0.0 | 0.00 | 0.00 | 0.00 | 91 | 1013.5 |
| 20260903102022 | 82 | 80 | 0.0 | 0.0 | 0.00 | 0.00 | 0.00 | 91 | 1013.5 |
| 20260903101518 | 82 | 80 | 0.0 | 0.0 | 0.00 | 0.00 | 0.00 | 91 | 1013.5 |
| 20260903101015 | 82 | 80 | 0.0 | 0.0 | 0.00 | 0.00 | 0.00 | 91 | 1013.5 |
| 20260903100512 | 82 | 80 | 0.0 | 0.0 | 0.00 | 0.00 | 0.00 | 91 | 1013.5 |
| 20260903100010 | 82 | 80 | 0.0 | 0.0 | 0.00 | 0.00 | 0.00 | 91 | 1013.5 |
| 20260903095436 | 82 | 80 | 0.0 | 0.0 | 0.00 | 0.00 | 0.00 | 91 | 1013.5 |
| 20260903094933 | 82 | 80 | 0.0 | 0.0 | 0.00 | 0.00 | 0.00 | 91 | 1013.5 |
| 20260903094429 | 82 | 80 | 0.0 | 0.0 | 0.00 | 0.00 | 0.00 | 90 | 1013.5 |
| 20260903093926 | 82 | 80 | 0.0 | 0.0 | 0.00 | 0.00 | 0.00 | 90 | 1013.5 |
| 20260903093423 | 83 | 80 | 0.0 | 0.0 | 0.00 | 0.00 | 0.00 | 90 | 1013.5 |
| 20260903092902 | 83 | 80 | 0.0 | 0.0 | 0.00 | 0.00 | 0.00 | 90 | 1013.5 |
| 20260903092358 | 83 | 80 | 0.0 | 0.0 | 0.00 | 0.00 | 0.00 | 90 | 1013.5 |
| 20260903091855 | 83 | 80 | 0.0 | 0.0 | 0.00 | 0.00 | 0.00 | 90 | 1013.5 |
| 20260903091353 | 83 | 80 | 0.0 | 0.0 | 0.00 | 0.00 | 0.00 | 90 | 1013.5 |
| 20260903090759 | 83 | 80 | 0.0 | 0.0 | 0.00 | 0.00 | 0.00 | 90 | 1013.5 |
| 20260903090134 | 83 | 80 | 0.0 | 1.0 | 0.00 | 0.00 | 0.00 | 90 | 1013.5 |
| 20260903085544 | 83 | 80 | 0.0 | 1.0 | 0.00 | 0.00 | 0.00 | 90 | 1013.5 |
| 20260903085010 | 83 | 80 | 0.0 | 1.0 | 0.00 | 0.00 | 0.00 | 90 | 1013.5 |
| 20260903084449 | 83 | 80 | 1.0 | 1.0 | 0.00 | 0.00 | 0.00 | 90 | 1013.5 |
| 20260903083946 | 83 | 80 | 0.0 | 0.0 | 0.00 | 0.00 | 0.00 | 90 | 1013.5 |
| 20260903083444 | 83 | 80 | 0.0 | 0.0 | 0.00 | 0.00 | 0.00 | 90 | 1013.5 |
| 20260903082941 | 83 | 80 | 0.0 | 0.0 | 0.00 | 0.00 | 0.00 | 90 | 1013.5 |
| 20260903082438 | 83 | 80 | 0.0 | 1.0 | 0.00 | 0.00 | 0.00 | 90 | 1013.5 |
| 20260903081934 | 83 | 80 | 0.0 | 1.0 | 0.00 | 0.00 | 0.00 | 90 | 1013.5 |
| 20260903081432 | 83 | 80 | 0.0 | 1.0 | 0.00 | 0.00 | 0.00 | 90 | 1013.5 |
| 20260903080928 | 83 | 80 | 0.0 | 1.0 | 0.00 | 0.00 | 0.00 | 90 | 1013.5 |
| 20260903080353 | 83 | 91 | 0.0 | 1.0 | 0.00 | 0.00 | 0.00 | 90 | 1013.5 |
| 20260903075819 | 83 | 91 | 0.0 | 1.0 | 0.00 | 0.00 | 0.00 | 90 | 1013.2 |
| 20260903075316 | 83 | 91 | 0.0 | 1.0 | 0.00 | 0.00 | 0.00 | 90 | 1013.2 |
| 20260903074813 | 83 | 104 | 1.0 | 1.0 | 0.00 | 0.00 | 0.00 | 90 | 1013.2 |
| 20260903074309 | 83 | 162 | 1.0 | 1.0 | 0.00 | 0.00 | 0.00 | 90 | 1013.5 |
| 20260903073806 | 83 | 162 | 0.0 | 1.0 | 0.00 | 0.00 | 0.00 | 90 | 1013.2 |
| 20260903072624 | 83 | 162 | 0.0 | 0.0 | 0.00 | 0.00 | 0.00 | 90 | 1013.5 |
| 20260903072120 | 83 | 162 | 0.0 | 0.0 | 0.00 | 0.00 | 0.00 | 90 | 1013.5 |
| 20260903071617 | 83 | 162 | 0.0 | 0.0 | 0.00 | 0.00 | 0.00 | 90 | 1013.5 |
| 20260903071115 | 83 | 162 | 0.0 | 0.0 | 0.00 | 0.00 | 0.00 | 90 | 1013.5 |
| 20260903070556 | 83 | 162 | 0.0 | 0.0 | 0.00 | 0.00 | 0.00 | 90 | 1013.5 |
| 20260903070034 | 83 | 162 | 0.0 | 0.0 | 0.00 | 0.00 | 0.00 | 90 | 1013.5 |
| 20260903065532 | 83 | 162 | 0.0 | 0.0 | 0.00 | 0.00 | 0.00 | 90 | 1013.9 |
| 20260903065028 | 83 | 162 | 0.0 | 0.0 | 0.00 | 0.00 | 0.00 | 90 | 1013.9 |
| 20260903064525 | 83 | 162 | 0.0 | 0.0 | 0.00 | 0.00 | 0.00 | 90 | 1013.9 |
| 20260903064022 | 83 | 162 | 0.0 | 1.0 | 0.00 | 0.00 | 0.00 | 90 | 1013.9 |
| 20260903063520 | 83 | 162 | 0.0 | 1.0 | 0.00 | 0.00 | 0.00 | 90 | 1013.9 |
| 20260903063016 | 83 | 162 | 0.0 | 1.0 | 0.00 | 0.00 | 0.00 | 90 | 1013.9 |
| 20260903062459 | 83 | 162 | 0.0 | 1.0 | 0.00 | 0.00 | 0.00 | 90 | 1013.9 |
| 20260903061936 | 83 | 40 | 0.0 | 0.0 | 0.00 | 0.00 | 0.00 | 90 | 1014.2 |
| 20260903061402 | 83 | 40 | 0.0 | 0.0 | 0.00 | 0.00 | 0.00 | 90 | 1014.2 |
| 20260903060859 | 83 | 40 | 0.0 | 1.0 | 0.00 | 0.00 | 0.00 | 90 | 1014.2 |
| 20260903060338 | 83 | 40 | 0.0 | 1.0 | 0.00 | 0.00 | 0.00 | 89 | 1014.2 |
| 20260903055804 | 83 | 40 | 0.0 | 1.0 | 0.00 | 0.00 | 0.00 | 89 | 1014.2 |
| 20260903055301 | 83 | 40 | 0.0 | 1.0 | 0.00 | 0.00 | 0.00 | 89 | 1014.6 |
| 20260903054758 | 83 | 57 | 0.0 | 0.0 | 0.00 | 0.00 | 0.00 | 89 | 1014.6 |
| 20260903054255 | 83 | 57 | 0.0 | 0.0 | 0.00 | 0.00 | 0.00 | 89 | 1014.6 |
| 20260903053752 | 83 | 57 | 0.0 | 0.0 | 0.00 | 0.00 | 0.00 | 89 | 1014.6 |
| 20260903053248 | 83 | 57 | 0.0 | 0.0 | 0.00 | 0.00 | 0.00 | 89 | 1014.6 |
| 20260903052745 | 83 | 57 | 0.0 | 0.0 | 0.00 | 0.00 | 0.00 | 89 | 1014.6 |
| 20260903051703 | 83 | 57 | 0.0 | 0.0 | 0.00 | 0.00 | 0.00 | 89 | 1014.6 |
| 20260903051200 | 83 | 57 | 0.0 | 0.0 | 0.00 | 0.00 | 0.00 | 89 | 1014.6 |
| 20260903050657 | 83 | 57 | 0.0 | 0.0 | 0.00 | 0.00 | 0.00 | 88 | 1014.6 |
| 20260903050154 | 83 | 57 | 0.0 | 0.0 | 0.00 | 0.00 | 0.00 | 88 | 1014.6 |
| 20260903045609 | 83 | 57 | 0.0 | 0.0 | 0.00 | 0.00 | 0.00 | 88 | 1014.6 |
| 20260903045106 | 83 | 57 | 0.0 | 0.0 | 0.00 | 0.00 | 0.00 | 88 | 1014.6 |
| 20260903044603 | 83 | 57 | 0.0 | 0.0 | 0.00 | 0.00 | 0.00 | 88 | 1014.9 |
| 20260903044100 | 83 | 57 | 0.0 | 0.0 | 0.00 | 0.00 | 0.00 | 88 | 1014.9 |
| 20260903043557 | 84 | 57 | 0.0 | 0.0 | 0.00 | 0.00 | 0.00 | 88 | 1014.6 |
| 20260903043055 | 84 | 57 | 0.0 | 0.0 | 0.00 | 0.00 | 0.00 | 88 | 1014.6 |
| 20260903042552 | 84 | 57 | 0.0 | 0.0 | 0.00 | 0.00 | 0.00 | 88 | 1014.6 |
| 20260903042031 | 84 | 57 | 0.0 | 0.0 | 0.00 | 0.00 | 0.00 | 88 | 1014.6 |
| 20260903041434 | 84 | 33 | 0.0 | 0.0 | 0.00 | 0.00 | 0.00 | 88 | 1014.6 |
| 20260903040844 | 84 | 33 | 0.0 | 0.0 | 0.00 | 0.00 | 0.00 | 88 | 1014.6 |
| 20260903040326 | 84 | 33 | 0.0 | 0.0 | 0.00 | 0.00 | 0.00 | 88 | 1014.9 |
| 20260903035804 | 84 | 33 | 0.0 | 1.0 | 0.00 | 0.00 | 0.00 | 88 | 1014.9 |
| 20260903035301 | 84 | 33 | 0.0 | 1.0 | 0.00 | 0.00 | 0.00 | 88 | 1014.6 |
| 20260903034739 | 84 | 33 | 0.0 | 1.0 | 0.00 | 0.00 | 0.00 | 88 | 1014.2 |
| 20260903034204 | 84 | 33 | 1.0 | 1.0 | 0.00 | 0.00 | 0.00 | 88 | 1014.2 |
| 20260903033702 | 84 | 29 | 0.0 | 0.0 | 0.00 | 0.00 | 0.00 | 88 | 1014.6 |
| 20260903033127 | 84 | 29 | 0.0 | 1.0 | 0.00 | 0.00 | 0.00 | 88 | 1014.6 |
| 20260903032623 | 84 | 29 | 0.0 | 1.0 | 0.00 | 0.00 | 0.00 | 87 | 1014.6 |
| 20260903032121 | 84 | 29 | 0.0 | 1.0 | 0.00 | 0.00 | 0.00 | 87 | 1014.6 |
| 20260903031559 | 84 | 29 | 1.0 | 1.0 | 0.00 | 0.00 | 0.00 | 87 | 1014.6 |
| 20260903031056 | 84 | 30 | 0.0 | 1.0 | 0.00 | 0.00 | 0.00 | 87 | 1014.2 |
| 20260903030537 | 84 | 30 | 0.0 | 1.0 | 0.00 | 0.00 | 0.00 | 87 | 1014.2 |
| 20260903030034 | 84 | 30 | 0.0 | 1.0 | 0.00 | 0.00 | 0.00 | 87 | 1014.2 |
| 20260903025501 | 84 | 30 | 0.0 | 1.0 | 0.00 | 0.00 | 0.00 | 87 | 1013.9 |
| 20260903024958 | 85 | 27 | 0.0 | 1.0 | 0.00 | 0.00 | 0.00 | 87 | 1013.9 |
| 20260903024454 | 85 | 27 | 0.0 | 1.0 | 0.00 | 0.00 | 0.00 | 87 | 1013.9 |
| 20260903023951 | 85 | 355 | 1.0 | 1.0 | 0.00 | 0.00 | 0.00 | 88 | 1013.9 |
| 20260903023447 | 85 | 355 | 1.0 | 1.0 | 0.00 | 0.00 | 0.00 | 88 | 1013.9 |
| 20260903022913 | 85 | 355 | 0.0 | 2.0 | 0.00 | 0.00 | 0.00 | 88 | 1013.9 |
| 20260903022410 | 85 | 355 | 0.0 | 2.0 | 0.00 | 0.00 | 0.00 | 87 | 1013.5 |
| 20260903021907 | 85 | 355 | 0.0 | 2.0 | 0.00 | 0.00 | 0.00 | 87 | 1013.5 |
| 20260903021346 | 85 | 8 | 1.0 | 2.0 | 0.00 | 0.00 | 0.00 | 87 | 1013.5 |
| 20260903020758 | 85 | 214 | 0.0 | 1.0 | 0.00 | 0.00 | 0.00 | 87 | 1013.5 |
| 20260903020217 | 85 | 214 | 0.0 | 1.0 | 0.00 | 0.00 | 0.00 | 87 | 1013.5 |
| 20260903015714 | 85 | 214 | 0.0 | 1.0 | 0.00 | 0.00 | 0.00 | 87 | 1013.5 |
| 20260903015138 | 85 | 189 | 0.0 | 0.0 | 0.00 | 0.00 | 0.00 | 87 | 1013.5 |
| 20260903014636 | 85 | 189 | 0.0 | 0.0 | 0.00 | 0.00 | 0.00 | 87 | 1013.5 |
| 20260903014133 | 85 | 189 | 0.0 | 1.0 | 0.00 | 0.00 | 0.00 | 87 | 1013.5 |
| 20260903013630 | 85 | 189 | 0.0 | 1.0 | 0.00 | 0.00 | 0.00 | 87 | 1013.5 |
| 20260903013127 | 85 | 189 | 0.0 | 2.0 | 0.00 | 0.00 | 0.00 | 87 | 1013.5 |
| 20260903012624 | 86 | 189 | 1.0 | 2.0 | 0.00 | 0.00 | 0.00 | 87 | 1013.5 |
| 20260903012121 | 86 | 189 | 0.0 | 3.0 | 0.00 | 0.00 | 0.00 | 87 | 1013.5 |
| 20260903011618 | 86 | 189 | 1.0 | 3.0 | 0.00 | 0.00 | 0.00 | 86 | 1013.2 |